Location: Estes Par
(40.3770°N, 105.5210°W)
Time: 16:00:16
(UTC-06:00)

Tiangong 2 - Pass Details

Date: 10 October 2017
Orbit: 388 x 392 km, 42.8° (Epoch: 19 October)

Event Time Altitude Azimuth Distance (km) Brightness Sun altitude
Exits shadow 05:06:02 29° 115° (ESE) 752 3.0 -23.9°
Drops below altitude 10° 05:08:05 10° 85° (E) 1,416 5.0 -23.5°
Sets 05:10:15 0° 76° (ENE) 2,274 6.5 -23.1°
